Location: Obersdorf
(47.4079°N, 10.2781°E)
Time: 05:03:56
(UTC+01:00)

NUDT-PHONESAT - Visible Passes

Search period start: 06 December 2021 00:00
Search period end: 16 December 2021 00:00
Orbit: 474 x 487 km, 97.4° (Epoch: 05 December)

Date Brightness Start Highest point End Pass type
(mag) Time Alt. Az. Time Alt. Az. Time Alt. Az.
06 Dec ? 06:46:44 10° NNE 06:50:04 34° E 06:53:21 10° SSE visible
06 Dec ? 17:25:25 10° ESE 17:28:19 23° ENE 17:31:13 10° NNE visible
06 Dec ? 18:58:27 10° SSW 19:01:35 27° W 19:04:43 10° NW visible
07 Dec ? 06:21:46 10° NE 06:24:18 18° E 06:26:48 10° SE visible
07 Dec ? 17:01:12 10° E 17:02:57 13° ENE 17:04:41 10° NNE visible
07 Dec ? 18:32:20 10° S 18:35:52 55° W 18:39:26 10° NNW visible
08 Dec ? 18:06:40 10° SSE 18:10:14 70° ENE 18:13:51 10° N visible
09 Dec ? 07:03:03 10° NNE 07:06:36 54° E 07:10:06 10° S visible
09 Dec ? 17:41:24 10° SE 17:44:41 34° ENE 17:48:00 10° N visible
09 Dec ? 19:15:36 10° SW 19:18:09 18° W 19:20:44 10° NW visible
10 Dec ? 06:37:45 10° NE 06:40:51 27° E 06:43:55 10° SSE visible
10 Dec ? 17:16:38 10° ESE 17:19:13 19° ENE 17:21:48 10° NNE visible
10 Dec ? 18:49:01 10° SSW 18:52:20 35° W 18:55:42 10° NNW visible
11 Dec ? 06:13:01 10° ENE 06:15:00 14° E 06:16:57 10° SE visible
11 Dec ? 18:23:01 10° S 18:26:37 73° WSW 18:30:14 10° NNW visible
12 Dec ? 07:19:21 10° NNE 07:22:58 88° ESE 07:26:32 10° SSW visible
12 Dec ? 17:57:26 10° SSE 18:00:57 53° ENE 18:04:29 10° N visible
12 Dec ? 19:33:08 10° WSW 19:34:38 12° W 19:36:09 10° WNW visible
13 Dec ? 06:53:48 10° NNE 06:57:14 41° E 07:00:37 10° S visible
13 Dec ? 17:32:18 10° SE 17:35:23 27° ENE 17:38:28 10° N visible
13 Dec ? 19:05:47 10° SSW 19:08:43 23° W 19:11:39 10° NW visible
14 Dec ? 06:28:35 10° NE 06:31:23 21° E 06:34:09 10° SE visible
14 Dec ? 17:07:43 10° E 17:09:52 15° ENE 17:12:01 10° NNE visible
14 Dec ? 18:39:25 10° S 18:42:53 45° W 18:46:23 10° NNW visible
15 Dec ? 06:04:26 10° ENE 06:05:25 11° E 06:06:25 10° ESE visible
15 Dec ? 18:13:31 10° SSE 18:17:07 85° E 18:20:45 10° NNW visible
